Location: Warszawa
(52.2500°N, 21.0000°E)
Time: 23:24:36
(UTC+01:00)

A-11 Canister half - Pass Details

Date: 11 February 2023
Orbit: 1526 x 1682 km, 47.3° (Epoch: 22 March)

Event Time Altitude Azimuth Distance (km) Brightness Sun altitude
Exits shadow 03:09:59 34° 164° (SSE) 2,304 9.7 -35.1°
Maximum altitude 03:11:33 36° 145° (SE) 2,233 9.8 -34.9°
Drops below altitude 10° 03:19:43 10° 83° (E) 3,708 11.8 -33.8°
Sets 03:23:04 0° 75° (ENE) 4,704 12.6 -33.3°
